EZY25C EGPH-EGKK

Flight info

Callsign EZY25C
Flight time 1h 0m
Altitude 37000
Route GOSAM P600 FENIK L612 NAVSO DCT ADZOP DCT EGTOC DCT KEPAD L151 DISIT
Aircraft A20N/M-SDE2E3FGHIRWXY/LB1

Departure

Time 2026-04-23 11:55
Airport Edinburgh Airport (EGPH)

Arrival

Time 2026-04-23 12:55
Airport London Gatwick Airport (EGKK)
Time Latitude Longitude Altitude Speed Heading
2026-04-23 11:37 55.94658 -3.36615 106 ft 0 kts 89°
2026-04-23 11:45 55.94658 -3.36631 106 ft 2 kts 87°
2026-04-23 11:45 55.94658 -3.36657 106 ft 2 kts 90°
2026-04-23 11:46 55.94658 -3.36684 105 ft 2 kts 89°
2026-04-23 11:46 55.94658 -3.36701 105 ft 2 kts 80°
2026-04-23 11:46 55.94650 -3.36724 105 ft 2 kts 40°
2026-04-23 11:46 55.94637 -3.36736 105 ft 1 kts
2026-04-23 11:47 55.94631 -3.36736 105 ft 1 kts 356°
2026-04-23 11:47 55.94628 -3.36735 105 ft 0 kts 359°
2026-04-23 11:49 55.94644 -3.36736 105 ft 4 kts
2026-04-23 11:49 55.94697 -3.36736 105 ft 10 kts 360°
2026-04-23 11:50 55.94781 -3.36767 103 ft 13 kts 340°
2026-04-23 11:50 55.94863 -3.36780 101 ft 10 kts 358°
2026-04-23 11:50 55.94926 -3.36853 100 ft 11 kts 288°
2026-04-23 11:50 55.94893 -3.36993 100 ft 12 kts 239°
2026-04-23 11:51 55.94848 -3.37130 102 ft 12 kts 240°
2026-04-23 11:51 55.94796 -3.37283 101 ft 17 kts 238°
2026-04-23 11:51 55.94714 -3.37522 101 ft 26 kts 239°
2026-04-23 11:51 55.94624 -3.37789 104 ft 24 kts 239°
2026-04-23 11:52 55.94540 -3.38033 107 ft 22 kts 239°
2026-04-23 11:52 55.94464 -3.38258 110 ft 20 kts 239°
2026-04-23 11:52 55.94392 -3.38469 111 ft 19 kts 239°
2026-04-23 11:52 55.94329 -3.38657 112 ft 15 kts 239°
2026-04-23 11:53 55.94292 -3.38765 114 ft 4 kts 238°
2026-04-23 11:53 55.94277 -3.38824 115 ft 7 kts 271°
2026-04-23 11:53 55.94347 -3.38931 114 ft 11 kts 329°
2026-04-23 11:53 55.94405 -3.38969 113 ft 7 kts 29°
2026-04-23 11:54 55.94441 -3.38893 112 ft 5 kts 59°
2026-04-23 11:54 55.94465 -3.38824 111 ft 8 kts 58°
2026-04-23 11:54 55.94601 -3.38422 107 ft 74 kts 59°
2026-04-23 11:54 55.94986 -3.37291 99 ft 137 kts 59°
2026-04-23 11:55 55.95528 -3.35682 430 ft 158 kts 59°
2026-04-23 11:55 55.96155 -3.34095 1058 ft 162 kts 49°
2026-04-23 11:55 55.96967 -3.32703 1726 ft 166 kts 44°
2026-04-23 11:55 55.97855 -3.31318 2217 ft 178 kts 43°
2026-04-23 11:56 55.98827 -3.29804 2637 ft 194 kts 44°
2026-04-23 11:56 55.99928 -3.28257 3056 ft 213 kts 26°
2026-04-23 11:56 56.01449 -3.27943 3452 ft 235 kts 346°
2026-04-23 11:56 56.02861 -3.29432 3989 ft 248 kts 309°
2026-04-23 11:57 56.03608 -3.32257 4506 ft 262 kts 276°
2026-04-23 11:57 56.03427 -3.35439 5255 ft 265 kts 251°
2026-04-23 11:57 56.02819 -3.38567 6143 ft 267 kts 249°
2026-04-23 11:57 56.02213 -3.41698 7037 ft 270 kts 250°
2026-04-23 11:58 56.01667 -3.44862 7891 ft 274 kts 253°
2026-04-23 11:58 56.01165 -3.48122 8718 ft 277 kts 254°
2026-04-23 11:58 56.00676 -3.51473 9541 ft 281 kts 254°
2026-04-23 11:58 56.00193 -3.54849 10369 ft 285 kts 255°
2026-04-23 11:59 55.99706 -3.58262 11035 ft 292 kts 255°
2026-04-23 11:59 55.99190 -3.61871 11457 ft 310 kts 255°
2026-04-23 11:59 55.98644 -3.65692 11815 ft 328 kts 255°
2026-04-23 11:59 55.98067 -3.69722 12149 ft 346 kts 255°
2026-04-23 12:00 55.97457 -3.73969 12439 ft 364 kts 255°
2026-04-23 12:00 55.96811 -3.78448 12703 ft 381 kts 255°
2026-04-23 12:00 55.96142 -3.83072 12961 ft 396 kts 255°
2026-04-23 12:00 55.95444 -3.87887 13332 ft 407 kts 255°
2026-04-23 12:01 55.94727 -3.92803 13934 ft 412 kts 255°
2026-04-23 12:01 55.94022 -3.97737 14580 ft 415 kts 257°
2026-04-23 12:01 55.93424 -4.02765 15213 ft 418 kts 257°
2026-04-23 12:01 55.92438 -4.07620 15790 ft 421 kts 242°
2026-04-23 12:02 55.90740 -4.11907 16413 ft 424 kts 227°
2026-04-23 12:02 55.88481 -4.15245 17001 ft 427 kts 212°
2026-04-23 12:02 55.85825 -4.17432 17547 ft 430 kts 198°
2026-04-23 12:02 55.82868 -4.18472 18080 ft 434 kts 188°
2026-04-23 12:03 55.79949 -4.19645 18579 ft 437 kts 200°
2026-04-23 12:03 55.77217 -4.21992 19129 ft 438 kts 212°
2026-04-23 12:03 55.74620 -4.24718 19676 ft 439 kts 206°
2026-04-23 12:03 55.71649 -4.26141 20146 ft 444 kts 185°
2026-04-23 12:04 55.68604 -4.25751 20663 ft 447 kts 168°
2026-04-23 12:04 55.65703 -4.23815 21163 ft 450 kts 154°
2026-04-23 12:04 55.62951 -4.21172 21643 ft 452 kts 151°
2026-04-23 12:04 55.60252 -4.18381 22086 ft 455 kts 150°
2026-04-23 12:05 55.57500 -4.15551 22538 ft 458 kts 150°
2026-04-23 12:05 55.54745 -4.12784 22968 ft 460 kts 151°
2026-04-23 12:05 55.51972 -4.10053 23383 ft 462 kts 152°
2026-04-23 12:05 55.49146 -4.07300 23789 ft 464 kts 152°
2026-04-23 12:06 55.46306 -4.04544 24163 ft 467 kts 152°
2026-04-23 12:06 55.43498 -4.01826 24502 ft 469 kts 152°
2026-04-23 12:06 55.37761 -3.96274 25383 ft 469 kts 152°
2026-04-23 12:07 55.34919 -3.93528 25848 ft 468 kts 152°
2026-04-23 12:07 55.32088 -3.90799 26275 ft 468 kts 151°
2026-04-23 12:07 55.29239 -3.88058 26710 ft 467 kts 151°
2026-04-23 12:07 55.26414 -3.85349 27126 ft 467 kts 152°
2026-04-23 12:08 55.23495 -3.82809 27512 ft 467 kts 155°
2026-04-23 12:08 55.20537 -3.80617 27903 ft 467 kts 159°
2026-04-23 12:08 55.17472 -3.78726 28317 ft 467 kts 162°
2026-04-23 12:08 55.14386 -3.77046 28694 ft 467 kts 162°
2026-04-23 12:09 55.11306 -3.75366 29077 ft 467 kts 162°
2026-04-23 12:09 55.08204 -3.73671 29494 ft 466 kts 162°
2026-04-23 12:09 55.05129 -3.71991 29921 ft 465 kts 162°
2026-04-23 12:09 55.02057 -3.70315 30317 ft 464 kts 162°
2026-04-23 12:10 54.99021 -3.68660 30703 ft 463 kts 162°
2026-04-23 12:10 54.95932 -3.66978 31070 ft 463 kts 162°
2026-04-23 12:10 54.92878 -3.65319 31405 ft 463 kts 162°
2026-04-23 12:10 54.89816 -3.63659 31761 ft 462 kts 162°
2026-04-23 12:11 54.86768 -3.62011 32095 ft 462 kts 162°
2026-04-23 12:11 54.83698 -3.60352 32400 ft 462 kts 162°
2026-04-23 12:11 54.80615 -3.58690 32664 ft 463 kts 162°
2026-04-23 12:11 54.77573 -3.57051 32932 ft 464 kts 162°
2026-04-23 12:12 54.74483 -3.55390 33196 ft 464 kts 162°
2026-04-23 12:12 54.71421 -3.53746 33494 ft 464 kts 162°
2026-04-23 12:12 54.68347 -3.52097 33793 ft 463 kts 162°
2026-04-23 12:12 54.65273 -3.50452 34060 ft 463 kts 162°
2026-04-23 12:13 54.62241 -3.48830 34310 ft 463 kts 162°
2026-04-23 12:13 54.59166 -3.47189 34571 ft 462 kts 162°
2026-04-23 12:13 54.56098 -3.45555 34796 ft 462 kts 162°
2026-04-23 12:13 54.53066 -3.43942 35030 ft 461 kts 162°
2026-04-23 12:14 54.50014 -3.42322 35249 ft 460 kts 162°
2026-04-23 12:14 54.46944 -3.40693 35456 ft 460 kts 162°
2026-04-23 12:14 54.43933 -3.39097 35644 ft 460 kts 162°
2026-04-23 12:14 54.40883 -3.37484 35801 ft 460 kts 162°
2026-04-23 12:15 54.36811 -3.35336 35994 ft 461 kts 162°
2026-04-23 12:15 54.34777 -3.34263 36090 ft 461 kts 163°
2026-04-23 12:15 54.31695 -3.32640 36236 ft 461 kts 163°
2026-04-23 12:15 54.28641 -3.31035 36370 ft 462 kts 163°
2026-04-23 12:16 54.25577 -3.29428 36505 ft 462 kts 163°
2026-04-23 12:16 54.22509 -3.27845 36670 ft 463 kts 164°
2026-04-23 12:16 54.19416 -3.26508 36803 ft 463 kts 168°
2026-04-23 12:16 54.16283 -3.25479 36952 ft 464 kts 171°
2026-04-23 12:17 54.13065 -3.24757 37076 ft 465 kts 175°
2026-04-23 12:17 54.09869 -3.24269 37184 ft 466 kts 175°
2026-04-23 12:17 54.06667 -3.23754 37292 ft 466 kts 174°
2026-04-23 12:17 54.03425 -3.22993 37402 ft 467 kts 171°
2026-04-23 12:18 53.97105 -3.20569 37589 ft 467 kts 164°
2026-04-23 12:18 53.91016 -3.16973 37488 ft 467 kts 159°
2026-04-23 12:19 53.84942 -3.13037 37479 ft 467 kts 159°
2026-04-23 12:19 53.78875 -3.09140 37477 ft 467 kts 159°
2026-04-23 12:20 53.72842 -3.05280 37477 ft 467 kts 159°
2026-04-23 12:20 53.66775 -3.01409 37472 ft 467 kts 159°
2026-04-23 12:21 53.60716 -2.97555 37471 ft 468 kts 159°
2026-04-23 12:21 53.54651 -2.93709 37469 ft 468 kts 159°
2026-04-23 12:22 53.48588 -2.89878 37463 ft 468 kts 159°
2026-04-23 12:22 53.42465 -2.86020 37464 ft 469 kts 159°
2026-04-23 12:23 53.36393 -2.82206 37465 ft 469 kts 159°
2026-04-23 12:23 53.30308 -2.78395 37461 ft 468 kts 159°
2026-04-23 12:24 53.24206 -2.74585 37461 ft 468 kts 159°
2026-04-23 12:24 53.18149 -2.70814 37457 ft 469 kts 159°
2026-04-23 12:25 53.12056 -2.67031 37454 ft 469 kts 159°
2026-04-23 12:25 53.05949 -2.63252 37449 ft 470 kts 159°
2026-04-23 12:26 52.99845 -2.59484 37457 ft 469 kts 159°
2026-04-23 12:26 52.93765 -2.55742 37443 ft 469 kts 159°
2026-04-23 12:27 52.87652 -2.51994 37451 ft 469 kts 159°
2026-04-23 12:27 52.81656 -2.47778 37441 ft 469 kts 152°
2026-04-23 12:28 52.76035 -2.42517 37304 ft 467 kts 145°
2026-04-23 12:28 52.70657 -2.36549 37423 ft 470 kts 144°
2026-04-23 12:29 52.65206 -2.30529 37431 ft 470 kts 145°
2026-04-23 12:29 52.59793 -2.24603 37356 ft 467 kts 145°
2026-04-23 12:30 52.57103 -2.21665 36920 ft 464 kts 145°
2026-04-23 12:30 52.54417 -2.18732 36118 ft 467 kts 145°
2026-04-23 12:30 52.51746 -2.15819 35310 ft 473 kts 145°
2026-04-23 12:30 52.48986 -2.12810 34468 ft 479 kts 145°
2026-04-23 12:31 52.46233 -2.09815 33567 ft 482 kts 145°
2026-04-23 12:31 52.43436 -2.06778 32557 ft 482 kts 145°
2026-04-23 12:31 52.40686 -2.03796 31259 ft 482 kts 145°
2026-04-23 12:31 52.37885 -2.00763 29545 ft 486 kts 145°
2026-04-23 12:32 52.35104 -1.97759 27570 ft 491 kts 145°
2026-04-23 12:32 52.32279 -1.94714 25740 ft 488 kts 145°
2026-04-23 12:32 52.29506 -1.91729 24871 ft 484 kts 144°
2026-04-23 12:32 52.26688 -1.88699 24028 ft 485 kts 145°
2026-04-23 12:33 52.23899 -1.85706 23399 ft 476 kts 144°
2026-04-23 12:33 52.21177 -1.82790 22816 ft 472 kts 145°
2026-04-23 12:33 52.18439 -1.79856 22216 ft 467 kts 145°
2026-04-23 12:33 52.15749 -1.76978 21605 ft 462 kts 145°
2026-04-23 12:34 52.13094 -1.74145 20986 ft 457 kts 145°
2026-04-23 12:34 52.10456 -1.71332 20370 ft 452 kts 145°
2026-04-23 12:34 52.07891 -1.68608 19989 ft 441 kts 145°
2026-04-23 12:34 52.05345 -1.65908 19629 ft 431 kts 145°
2026-04-23 12:35 52.02878 -1.63291 19274 ft 423 kts 145°
2026-04-23 12:35 52.00417 -1.60682 18915 ft 417 kts 145°
2026-04-23 12:35 51.98018 -1.58139 18561 ft 411 kts 145°
2026-04-23 12:35 51.95655 -1.55642 18207 ft 407 kts 145°
2026-04-23 12:36 51.93296 -1.53149 17852 ft 403 kts 145°
2026-04-23 12:36 51.90984 -1.50711 17506 ft 399 kts 144°
2026-04-23 12:36 51.88670 -1.48272 17151 ft 396 kts 144°
2026-04-23 12:36 51.86373 -1.45855 16805 ft 393 kts 144°
2026-04-23 12:37 51.84101 -1.43466 16461 ft 390 kts 144°
2026-04-23 12:37 51.81826 -1.41076 16114 ft 388 kts 144°
2026-04-23 12:37 51.79575 -1.38715 15771 ft 385 kts 144°
2026-04-23 12:37 51.77310 -1.36343 15433 ft 389 kts 144°
2026-04-23 12:38 51.74223 -1.33119 15362 ft 404 kts 145°
2026-04-23 12:38 51.72664 -1.31496 15377 ft 405 kts 145°
2026-04-23 12:38 51.70291 -1.29025 15398 ft 406 kts 145°
2026-04-23 12:38 51.67947 -1.26586 15412 ft 406 kts 145°
2026-04-23 12:39 51.65552 -1.24098 15414 ft 406 kts 145°
2026-04-23 12:39 51.63195 -1.21651 15407 ft 405 kts 145°
2026-04-23 12:39 51.60853 -1.19222 15063 ft 399 kts 145°
2026-04-23 12:39 51.58522 -1.16806 14572 ft 398 kts 145°
2026-04-23 12:40 51.56205 -1.14407 14415 ft 398 kts 145°
2026-04-23 12:40 51.53892 -1.12014 14416 ft 400 kts 145°
2026-04-23 12:40 51.51558 -1.09603 14411 ft 400 kts 145°
2026-04-23 12:40 51.49226 -1.07196 14412 ft 399 kts 145°
2026-04-23 12:41 51.46904 -1.04808 14411 ft 400 kts 145°
2026-04-23 12:41 51.44550 -1.02388 14411 ft 400 kts 144°
2026-04-23 12:41 51.42226 -1.00001 14409 ft 399 kts 144°
2026-04-23 12:41 51.39876 -0.97591 14406 ft 399 kts 144°
2026-04-23 12:42 51.37543 -0.95198 14399 ft 400 kts 144°
2026-04-23 12:42 51.35208 -0.92806 14161 ft 399 kts 144°
2026-04-23 12:42 51.32891 -0.90436 13912 ft 397 kts 144°
2026-04-23 12:42 51.30568 -0.88063 13659 ft 395 kts 144°
2026-04-23 12:43 51.28280 -0.85728 13411 ft 393 kts 144°
2026-04-23 12:43 51.25982 -0.83384 13162 ft 392 kts 144°
2026-04-23 12:43 51.23686 -0.81049 12913 ft 390 kts 144°
2026-04-23 12:43 51.21405 -0.78729 12664 ft 389 kts 144°
2026-04-23 12:44 51.19139 -0.76427 12415 ft 387 kts 144°
2026-04-23 12:44 51.16901 -0.74158 12125 ft 380 kts 144°
2026-04-23 12:44 51.14695 -0.71923 11795 ft 365 kts 144°
2026-04-23 12:44 51.12628 -0.69838 11544 ft 347 kts 144°
2026-04-23 12:45 51.10615 -0.67832 11289 ft 330 kts 144°
2026-04-23 12:45 51.08751 -0.65993 11034 ft 310 kts 144°
2026-04-23 12:45 51.06970 -0.64246 10777 ft 291 kts 144°
2026-04-23 12:45 51.05292 -0.62606 10528 ft 282 kts 144°
2026-04-23 12:46 51.03636 -0.60988 10286 ft 280 kts 145°
2026-04-23 12:46 51.01973 -0.59357 10026 ft 279 kts 144°
2026-04-23 12:46 51.00319 -0.57732 9773 ft 278 kts 144°
2026-04-23 12:46 50.98703 -0.56142 9533 ft 276 kts 144°
2026-04-23 12:47 50.97100 -0.54447 9274 ft 273 kts 135°
2026-04-23 12:47 50.96022 -0.52067 8939 ft 266 kts 108°
2026-04-23 12:47 50.95763 -0.49238 8551 ft 264 kts 86°
2026-04-23 12:47 50.95965 -0.46352 8182 ft 262 kts 82°
2026-04-23 12:48 50.96254 -0.43518 7805 ft 262 kts 79°
2026-04-23 12:48 50.96890 -0.40836 7398 ft 264 kts 56°
2026-04-23 12:48 50.98267 -0.38909 7007 ft 270 kts 28°
2026-04-23 12:48 51.00087 -0.38212 6610 ft 277 kts
2026-04-23 12:49 51.01961 -0.38936 6203 ft 283 kts 333°
2026-04-23 12:49 51.03431 -0.40936 5855 ft 284 kts 305°
2026-04-23 12:49 51.04328 -0.43680 5671 ft 273 kts 293°
2026-04-23 12:49 51.05017 -0.46421 5475 ft 263 kts 291°
2026-04-23 12:50 51.05657 -0.49093 5304 ft 255 kts 293°
2026-04-23 12:50 51.06596 -0.51365 5071 ft 246 kts 322°
2026-04-23 12:50 51.08064 -0.52552 4778 ft 235 kts 355°
2026-04-23 12:50 51.09634 -0.52336 4454 ft 223 kts 28°
2026-04-23 12:51 51.10793 -0.50853 4140 ft 212 kts 62°
2026-04-23 12:51 51.11193 -0.48694 3846 ft 206 kts 88°
2026-04-23 12:51 51.11234 -0.46413 3577 ft 205 kts 87°
2026-04-23 12:51 51.11379 -0.44182 3291 ft 204 kts 81°
2026-04-23 12:52 51.11660 -0.41969 2970 ft 206 kts 78°
2026-04-23 12:52 51.11982 -0.39738 2648 ft 206 kts 77°
2026-04-23 12:52 51.12294 -0.37528 2309 ft 207 kts 77°
2026-04-23 12:52 51.12594 -0.35317 1999 ft 203 kts 77°
2026-04-23 12:53 51.12883 -0.33179 1721 ft 186 kts 78°
2026-04-23 12:53 51.13142 -0.31259 1617 ft 170 kts 78°
2026-04-23 12:53 51.13375 -0.29477 1269 ft 161 kts 78°
2026-04-23 12:53 51.13596 -0.27826 1067 ft 144 kts 77°
2026-04-23 12:54 51.13807 -0.26348 878 ft 134 kts 76°
2026-04-23 12:54 51.14003 -0.24910 738 ft 133 kts 77°
2026-04-23 12:54 51.14202 -0.23468 583 ft 133 kts 76°
2026-04-23 12:54 51.14400 -0.22042 383 ft 131 kts 77°
2026-04-23 12:55 51.14594 -0.20623 233 ft 131 kts 76°
2026-04-23 12:55 51.14784 -0.19268 194 ft 110 kts 78°
2026-04-23 12:55 51.14909 -0.18337 196 ft 60 kts 78°
2026-04-23 12:55 51.14980 -0.17957 196 ft 16 kts 57°
2026-04-23 12:56 51.15037 -0.17832 196 ft 8 kts 53°
2026-04-23 12:56 51.15065 -0.17775 196 ft 6 kts 46°
2026-04-23 12:56 51.15109 -0.17755 196 ft 7 kts 354°
2026-04-23 12:56 51.15170 -0.17767 195 ft 9 kts 351°
2026-04-23 12:57 51.15213 -0.17779 194 ft 2 kts 351°
2026-04-23 12:57 51.15219 -0.17780 194 ft 0 kts 352°
2026-04-23 12:57 51.15231 -0.17789 194 ft 5 kts 318°
2026-04-23 12:57 51.15237 -0.17882 195 ft 13 kts 256°
2026-04-23 12:58 51.15215 -0.18031 195 ft 11 kts 264°
2026-04-23 12:58 51.15271 -0.18107 194 ft 12 kts 348°
2026-04-23 12:58 51.15360 -0.18136 193 ft 13 kts 348°
2026-04-23 12:58 51.15450 -0.18167 193 ft 13 kts 342°
2026-04-23 12:59 51.15540 -0.18206 192 ft 14 kts 348°
2026-04-23 12:59 51.15627 -0.18233 190 ft 11 kts 360°
2026-04-23 12:59 51.15676 -0.18141 190 ft 11 kts 83°
2026-04-23 12:59 51.15688 -0.18039 192 ft 8 kts 65°
2026-04-23 13:00 51.15729 -0.17982 193 ft 6 kts 33°
2026-04-23 13:00 51.15760 -0.17950 193 ft 3 kts 33°
2026-04-23 13:00 51.15770 -0.17940 193 ft 0 kts 33°
2026-04-23 13:00 51.15772 -0.17939 193 ft 0 kts 32°
2026-04-23 13:01 51.15772 -0.17938 193 ft 0 kts 32°